Weather History for Grand Canyon, AZ

Change the Weather History Date:

Tuesday, January 1, 2013

  Actual Average Record
Temperature  
Mean Temperature 10 °F -  
Max Temperature 30 °F 42 °F 58 °F (1981)
Min Temperature -11 °F 14 °F -27 °F (2011)
Degree Days  
Heating Degree Days 56    
Moisture  
Dew Point -3 °F    
Average Humidity 64    
Maximum Humidity 87    
Minimum Humidity 32    
Precipitation  
Precipitation 0.00 in - - ()
Sea Level Pressure  
Sea Level Pressure 30.38 in    
Wind  
Wind Speed 3 mph (East)    
Max Wind Speed 10 mph    
Max Gust Speed -    
Visibility 10 miles    
Events      
Averages and records for this station are not official NWS values.
T = Trace of Precipitation, MM = Missing Value Source: NWS Daily Summary

Daily Weather History Graph

Daily Weather History Graph

Search for Another Location

Airport:

Trip Planner

Search our weather history database for the weather conditions in past years. The results will help you decide how hot, cold, wet, or windy it might be!

Date:

Astronomy

Jan. 01, 2013 Rise Set
Actual Time 7:39 AM MST 5:25 PM MST
Civil Twilight 7:10 AM MST 5:54 PM MST
Nautical Twilight 6:38 AM MST 6:26 PM MST
Astronomical Twilight 6:07 AM MST 6:57 PM MST
Moon 9:51 PM MST (1/1) 10:01 AM MST (1/1)
Length of Visible Light 10h 43m
Length of Day
9h 46m
Waning Gibbous, 83% of the Moon is Illuminated
Jan 1
Waning Gibbous
Jan 4
Last Quarter
Jan 11
New
Jan 18
First Quarter
Jan 26
Full

Hourly Weather History & Observations

Time (MST) Temp. Windchill Dew Point Humidity Pressure Visibility Wind Dir Wind Speed Gust Speed Precip Events Conditions
12:54 AM -6.0 °F - -11.9 °F 75% 30.30 in 10.0 mi Calm Calm - N/A   Clear
1:54 AM -6.0 °F -14.7 °F -13.0 °F 72% 30.30 in 10.0 mi NE 3.5 mph - N/A   Clear
3:54 AM -9.0 °F -18.2 °F -14.1 °F 79% 30.34 in 10.0 mi East 3.5 mph - N/A   Clear
4:54 AM -9.9 °F - -17.0 °F 71% 30.35 in 10.0 mi Calm Calm - N/A   Clear
5:54 AM -11.0 °F - -18.0 °F 71% 30.38 in 10.0 mi Calm Calm - N/A   Clear
6:54 AM -11.9 °F - -18.9 °F 71% 30.42 in 10.0 mi Calm Calm - N/A   Clear
8:54 AM -2.9 °F - -6.0 °F 87% 30.41 in 10.0 mi Calm Calm - N/A   Clear
10:54 AM 23.0 °F 17.0 °F 9.0 °F 55% 30.35 in 10.0 mi SSW 4.6 mph - N/A   Clear
11:54 AM 27.0 °F 23.0 °F 10.0 °F 49% 30.36 in 10.0 mi SSW 3.5 mph - N/A   Clear
12:54 PM 30.0 °F 25.2 °F 10.9 °F 45% 30.31 in 10.0 mi West 4.6 mph - N/A   Clear
1:54 PM 30.9 °F 22.8 °F 3.9 °F 32% 30.30 in 10.0 mi NE 9.2 mph - N/A   Clear
2:54 PM 28.0 °F 18.6 °F 8.1 °F 43% 30.35 in 10.0 mi ENE 10.4 mph - N/A   Clear
4:54 PM 24.1 °F 15.2 °F 5.0 °F 44% 30.40 in 10.0 mi ENE 8.1 mph - N/A   Clear
5:54 PM 19.9 °F 10.1 °F 5.0 °F 52% 30.42 in 10.0 mi NE 8.1 mph - N/A   Clear
6:54 PM 18.0 °F 9.8 °F 3.9 °F 54% 30.45 in 10.0 mi ENE 5.8 mph - N/A   Clear
7:54 PM 8.1 °F - -0.0 °F 70% 30.52 in 10.0 mi Calm Calm - N/A   Clear
8:54 PM 10.0 °F 3.6 °F 1.9 °F 70% 30.45 in 10.0 mi SSW 3.5 mph - N/A   Clear
9:54 PM 3.0 °F - -2.9 °F 76% 30.43 in 10.0 mi Calm Calm - N/A   Clear
10:54 PM -0.9 °F - -7.1 °F 75% 30.41 in 10.0 mi Calm Calm - N/A   Clear
11:54 PM -4.0 °F - -8.0 °F 83% 30.40 in 10.0 mi Calm Calm - N/A   Clear